Change the Weather History Date:

Wednesday, September 11, 2013

  Actual Average Record
Temperature  
Mean Temperature 64 °F 63 °F  
Max Temperature 68 °F 77 °F 89 °F (1895)
Min Temperature 59 °F 49 °F 30 °F (1898)
Degree Days  
Heating Degree Days 1 4  
Month to date heating degree days 1 29  
Since 1 July heating degree days 11 60  
Cooling Degree Days 0 2  
Month to date cooling degree days 81 24  
Year to date cooling degree days 683 442  
Growing Degree Days 12 (Base 50)    
Moisture  
Dew Point 57 °F    
Average Humidity 81    
Maximum Humidity 93    
Minimum Humidity 68    
Precipitation  
Precipitation 0.19 in 0.05 in 4.29 in (2008)
Month to date precipitation 0.36 0.60  
Year to date precipitation 14.02 14.39  
Snow  
Snow 0.00 in 0.00 in 0.00 in (2002)
Month to date snowfall 0.0 0.0  
Since 1 July snowfall T 0.0  
Since 1 September snowfall 0.0 0.0  
Snow Depth 0.00 in    
Sea Level Pressure  
Sea Level Pressure 30.14 in    
Wind  
Wind Speed 9 mph (ESE)    
Max Wind Speed 17 mph    
Max Gust Speed 21 mph    
Visibility 9 miles    
Events Rain    
T = Trace of Precipitation, MM = Missing Value Source: NWS Daily Summary

Daily Weather History Graph

Daily Weather History Graph

Search for Another Location

Airport or City:

Trip Planner

Search our weather history database for the weather conditions in past years. The results will help you decide how hot, cold, wet, or windy it might be!

Date:

Astronomy

Sep. 11, 2013 Rise Set
Actual Time 6:36 AM MDT 7:12 PM MDT
Civil Twilight 6:10 AM MDT 7:39 PM MDT
Nautical Twilight 5:38 AM MDT 8:11 PM MDT
Astronomical Twilight 5:05 AM MDT 8:43 PM MDT
Moon 1:03 PM MDT (9/11) 11:15 PM MDT (9/11)
Length of Visible Light 13h 29m
Length of Day
12h 35m
Waxing Crescent, 39% of the Moon is Illuminated
Sep 11
Waxing Crescent
Sep 12
First Quarter
Sep 19
Full
Sep 26
Last Quarter
Oct 4
New

Hourly Weather History & Observations

Time (MDT) Temp. Dew Point Humidity Pressure Visibility Wind Dir Wind Speed Gust Speed Precip Events Conditions
12:54 AM 61.0 °F 55.9 °F 83% 30.05 in 10.0 mi NE 4.6 mph - N/A   Mostly Cloudy
1:54 AM 60.1 °F 57.0 °F 90% 30.04 in 10.0 mi NNW 5.8 mph - 0.01 in Rain Light Rain
2:54 AM 60.1 °F 57.0 °F 90% 30.04 in 10.0 mi NNE 4.6 mph - 0.00 in   Mostly Cloudy
3:54 AM 60.1 °F 55.9 °F 86% 30.02 in 10.0 mi North 6.9 mph - N/A   Overcast
4:41 AM 60.8 °F 55.4 °F 82% 30.26 in 10.0 mi North 5.8 mph - N/A   Overcast
4:54 AM 60.1 °F 55.9 °F 86% 30.03 in 10.0 mi North 4.6 mph - N/A   Overcast
5:54 AM 61.0 °F 55.9 °F 83% 30.04 in 10.0 mi Calm Calm - N/A   Overcast
6:54 AM 60.1 °F 57.0 °F 90% 30.08 in 7.0 mi East 5.8 mph - 0.00 in Rain Light Rain
7:38 AM 59.0 °F 57.2 °F 94% 30.29 in 2.0 mi ESE 8.1 mph - 0.12 in Rain Rain
7:54 AM 59.0 °F 57.9 °F 96% 30.11 in 2.0 mi ESE 11.5 mph - 0.17 in Rain Rain
8:07 AM 59.0 °F 57.2 °F 94% 30.29 in 5.0 mi ESE 11.5 mph - 0.01 in Rain Light Rain
8:38 AM 60.8 °F 57.2 °F 88% 30.30 in 10.0 mi ESE 9.2 mph - 0.01 in   Overcast
8:54 AM 61.0 °F 57.9 °F 90% 30.12 in 10.0 mi ESE 12.7 mph - 0.01 in   Mostly Cloudy
9:54 AM 62.1 °F 57.0 °F 84% 30.12 in 10.0 mi SE 12.7 mph - N/A   Overcast
10:54 AM 64.0 °F 57.0 °F 78% 30.11 in 10.0 mi SE 8.1 mph - N/A   Overcast
11:54 AM 64.9 °F 55.9 °F 73% 30.10 in 10.0 mi SSE 9.2 mph - N/A   Mostly Cloudy
12:54 PM 66.9 °F 55.9 °F 68% 30.09 in 10.0 mi SE 6.9 mph - N/A   Mostly Cloudy
1:54 PM 66.0 °F 55.9 °F 70% 30.09 in 10.0 mi SSE 12.7 mph - N/A   Overcast
2:54 PM 66.9 °F 55.0 °F 66% 30.07 in 10.0 mi SSE 11.5 mph - N/A   Overcast
3:54 PM 66.0 °F 55.9 °F 70% 30.07 in 10.0 mi SSE 10.4 mph - N/A   Overcast
4:29 PM 66.2 °F 55.4 °F 68% 30.27 in 10.0 mi SSE 12.7 mph - N/A   Overcast
4:54 PM 66.0 °F 55.9 °F 70% 30.07 in 10.0 mi SSE 13.8 mph - N/A   Overcast
5:18 PM 66.2 °F 57.2 °F 73% 30.27 in 10.0 mi SE 13.8 mph - N/A   Overcast
5:54 PM 64.9 °F 57.9 °F 78% 30.07 in 10.0 mi ESE 12.7 mph - 0.00 in Rain Light Rain
6:21 PM 64.4 °F 57.2 °F 77% 30.27 in 10.0 mi SE 15.0 mph - 0.00 in   Overcast
6:54 PM 63.0 °F 59.0 °F 87% 30.08 in 9.0 mi SSE 13.8 mph - 0.00 in   Overcast
7:33 PM 60.8 °F 57.2 °F 88% 30.28 in 10.0 mi SE 10.4 mph - N/A   Overcast
7:54 PM 62.1 °F 59.0 °F 90% 30.10 in 10.0 mi SE 8.1 mph - N/A   Overcast
8:04 PM 62.6 °F 59.0 °F 88% 30.29 in 10.0 mi SE 9.2 mph - N/A   Overcast
8:11 PM 62.6 °F 60.8 °F 94% 30.29 in 10.0 mi ESE 10.4 mph - N/A   Overcast
8:54 PM 62.1 °F 60.1 °F 93% 30.12 in 8.0 mi ESE 9.2 mph - N/A   Overcast
9:45 PM 62.6 °F 60.8 °F 94% 30.31 in 7.0 mi ESE 8.1 mph - N/A   Overcast
9:54 PM 62.1 °F 60.1 °F 93% 30.12 in 7.0 mi ESE 9.2 mph - N/A   Overcast
10:54 PM 62.1 °F 60.1 °F 93% 30.11 in 8.0 mi ESE 6.9 mph - 0.00 in Rain Light Rain
11:54 PM 62.1 °F 59.0 °F 90% 30.09 in 8.0 mi ESE 9.2 mph - 0.00 in   Mostly Cloudy